DW3383 Weather Reports


time (UTC)temp
C
wind
direction
speed
KPH
gust
KPH
rain 1hr
cm
rain 24hr
cm
rain mn
cm
humidity
%
barometer
mb
20260509090739 5 284 9.7 12.9 0.00 0.00 0.00 81 1003.1
20260509090239 5 289 8.0 12.9 0.00 0.00 0.00 81 1003.0
20260509080739 5 136 8.0 12.9 0.00 0.00 0.00 81 1003.3
20260509080241 5 192 8.0 14.5 0.00 0.00 0.00 81 1003.3
20260509060809 6 267 8.0 14.5 0.00 0.00 0.00 79 1003.9
20260509060308 6 277 6.4 14.5 0.00 0.00 0.00 78 1003.8
20260509050808 6 140 4.8 11.3 0.00 0.00 0.00 76 1003.9
20260509050309 6 139 3.2 11.3 0.00 0.00 0.00 76 1003.9
20260509040808 7 261 4.8 11.3 0.00 0.00 0.00 73 1004.2
20260509040308 7 187 3.2 12.9 0.00 0.00 0.00 72 1004.3
20260509030808 8 320 3.2 9.7 0.00 0.00 0.00 67 1004.1
20260509030308 8 295 3.2 12.9 0.00 0.00 0.00 67 1004.1
20260509020808 9 305 8.0 11.3 0.00 0.00 0.00 60 1004.0
20260509020309 10 324 4.8 14.5 0.00 0.00 0.00 59 1004.0
20260509010808 11 88 3.2 4.8 0.00 0.00 0.00 54 1004.0
20260509010307 11 45 3.2 11.3 0.00 0.00 0.00 54 1003.9
20260509000310 11 40 3.2 9.7 0.00 0.00 0.00 51 1004.0
20260508230808 12 53 3.2 8.0 0.00 0.00 0.00 48 1004.3
20260508230307 12 92 3.2 11.3 0.00 0.00 0.00 48 1004.3
20260508220808 12 95 1.6 4.8 0.00 0.00 0.00 48 1004.8
20260508220308 12 284 1.6 12.9 0.00 0.00 0.00 47 1004.9
20260508210808 10 29 4.8 11.3 0.00 0.00 0.00 50 1005.6
20260508210308 10 300 4.8 16.1 0.00 0.00 0.00 49 1005.6
20260508200809 10 276 8.0 12.9 0.00 0.00 0.00 50 1005.9
20260508200309 9 313 9.7 14.5 0.00 0.00 0.00 49 1006.0
20260508190810 9 301 8.0 14.5 0.00 0.00 0.00 50 1006.2
20260508190309 9 320 8.0 14.5 0.00 0.00 0.00 50 1006.2
20260508180308 7 256 3.2 12.9 0.00 0.00 0.00 54 1007.0
20260508170807 6 291 4.8 11.3 0.00 0.00 0.00 58 1007.8
20260508170308 6 284 4.8 12.9 0.00 0.00 0.00 58 1008.0
20260508160807 1 285 4.8 8.0 0.00 0.00 0.00 74 1009.0
20260508160308 1 278 4.8 8.0 0.00 0.00 0.00 76 1009.0
20260508150308 -1 69 1.6 4.8 0.00 0.00 0.00 85 1009.9
20260508140309 -3 283 1.6 3.2 0.00 0.00 0.00 91 1010.4
20260508130809 -4 281 0.0 3.2 0.00 0.00 0.00 91 1011.0
20260508130307 -4 280 0.0 4.8 0.00 0.00 0.00 92 1011.0
20260508120807 -3 281 0.0 3.2 0.00 0.00 0.00 90 1011.5
20260508120307 -3 289 0.0 3.2 0.00 0.00 0.00 89 1011.6
20260508110308 -3 280 1.6 3.2 0.00 0.00 0.00 86 1012.1
20260508100808 -2 286 3.2 3.2 0.00 0.00 0.00 85 1012.4
20260508100307 -2 286 1.6 4.8 0.00 0.00 0.00 85 1012.4